Location: *
(50.8160°S, 176.0219°W)
Time: 23:37:54
(UTC+00:00)

Cosmos 2333 Rocket - Pass Details

Date: 19 May 2026
Orbit: 840 x 862 km, 70.8° (Epoch: 11 June)

Event Time Altitude Azimuth Distance (km) Brightness Sun altitude
Exits shadow 18:09:38 - 207° (SSW) 3,190 4.8 -10.9°
Reaches altitude 10° 18:11:42 10° 197° (SSW) 2,523 4.3 -10.6°
Maximum altitude 18:16:34 27° 140° (SE) 1,611 3.9 -9.8°
Drops below altitude 10° 18:21:23 10° 82° (E) 2,493 6.2 -9.1°
Sets 18:24:13 0° 70° (ENE) 3,419 7.9 -8.7°
